Overview Statistics Trail Chart Weather Telemetry Raw packets
 

This is the latest recevied weather packets stored in our database for station/object KA1AL. If no packets are shown the sender has not sent any weather packets the latest 10 day(s).

<< 54 55 56 57 58 59 60 >>
Time Temp. Humidity Pressure Rain* Wind** Luminosity Snow
1777154933 11.67° C 57% 1014.9 hPa 0 mm - 106 W/m² -
1777154629 12.22° C 54% 1014.9 hPa 0 mm - 118 W/m² -
1777154326 12.22° C 54% 1014.7 hPa 0 mm - 129 W/m² -
1777154021 12.22° C 54% 1014.6 hPa 0 mm - 140 W/m² -
1777153717 12.22° C 54% 1014.9 hPa 0 mm - 154 W/m² -
1777153414 12.22° C 54% 1014.7 hPa 0 mm - 175 W/m² -
1777153110 12.22° C 53% 1014.6 hPa 0 mm - 178 W/m² -
1777152806 11.67° C 56% 1014.8 hPa 0 mm - 178 W/m² -
1777152503 12.22° C 53% 1014.8 hPa 0 mm - 176 W/m² -
1777152200 12.22° C 54% 1014.7 hPa 0 mm - 238 W/m² -
1777151895 12.22° C 53% 1014.4 hPa 0 mm - 257 W/m² -
1777151591 12.22° C 55% 1014.8 hPa 0 mm - 258 W/m² -
1777151288 12.78° C 56% 1014.9 hPa 0 mm - 271 W/m² -
1777150984 12.22° C 54% 1014.6 hPa 0 mm - 272 W/m² -
1777150683 12.78° C 54% 1014.6 hPa 0 mm - 285 W/m² -
1777150379 12.78° C 57% 1014.6 hPa 0 mm - 306 W/m² -
1777150076 12.22° C 54% 1014.4 hPa 0 mm - 324 W/m² -
1777149771 12.78° C 56% 1014.7 hPa 0 mm - 336 W/m² -
1777149469 12.78° C 54% 1014.6 hPa 0 mm - 355 W/m² -
1777149165 12.78° C 55% 1014.6 hPa 0 mm - 372 W/m² -
1777148864 12.22° C 53% 1014.6 hPa 0 mm - 377 W/m² -
1777148562 12.78° C 56% 1014.6 hPa 0 mm - 382 W/m² -
1777148257 12.22° C 52% 1014.6 hPa 0 mm - 387 W/m² -
1777147954 12.78° C 55% 1014.7 hPa 0 mm - 387 W/m² -
1777147650 12.22° C 53% 1014.7 hPa 0 mm - 405 W/m² -

* Rain latest hour (hover to see other rain measurements)
** Current wind speed in m/s (hover to see current wind gust speed)